713  
ASUS41 KCLE 220012  
RWRCLE  
OHIO REGIONAL WEATHER ROUNDUP  
NATIONAL WEATHER SERVICE WILMINGTON, OH  
800 PM EDT TUE AUG 21 2018  
 
NOTE: "FAIR" INDICATES FEW OR NO CLOUDS BELOW 12,000 FEET WITH NO  
SIGNIFICANT WEATHER AND/OR S TO VISIBILITY
.  
 
OHZ001>008-015>018-024>027-034-035-043-044-220100-  
NORTHWEST OHIO  
 
CITY SKY/WX TMP DP RH WIND PRES REMARKS
 
DEFIANCE FAIR 74 65 73 N9 29.83R  
FINDLAY FAIR 74 69 85 W8 29.80R  
TOLEDO EXPRESS FAIR 75 62 64 NW12 29.80R  
TOLEDO EXEC MOCLDY 76 64 66 NW17 29.80R  
LIMA FAIR 70 68 93 W6 29.83S  

 
 
OHZ009>014-019>023-028>033-038-089-220100-  
NORTHEAST OHIO  
 
CITY SKY/WX TMP DP RH WIND PRES REMARKS
 
CLE-HOPKINS MOCLDY 75 70 84 SW7 29.78R THUNDER  
CLE-LAKEFRONT CLOUDY 75 69 81 SW9 29.73S THUNDER  
CUY CO. ARPT MOCLDY 75 70 83 SW10 29.76R  
LORAIN-ELYRIA LGT RAIN 73 64 73 N7 29.78R  
ASHTABULA FAIR 74 69 85 W6 29.75S  
AKRON-CANTON FAIR 75 65 70 W8 29.78S  
WOOSTER FAIR 72 68 87 SW7 29.80R  
MANSFIELD FAIR 74 69 85 SW8 29.82R  
YOUNGSTOWN FAIR 73 69 87 W7 29.77S  

 
 
OHZ042-051>053-060>062-070>072-077>081-220100-  
SOUTHWEST OHIO  
 
CITY SKY/WX TMP DP RH WIND PRES REMARKS
 
CINC-COVINGTON MOCLDY 77 68 73 W9 29.88R  
CINC-LUNKEN FAIR 79 68 69 W16 29.86R  
HAMILTON CLOUDY 78 69 73 W6 29.86R  
DAYTON LGT RAIN 71 68 90 W9 29.87R  
WRIGHT-PAT AFB MOCLDY 77 68 73 NW14G24 29.85R  
DAYTON GENERAL FAIR 77 67 71 W8G18 29.86R  
WILMINGTON MOCLDY 77 69 76 W7 29.86R  

 
 
OHZ036-037-039>041-045>050-054>059-063>069-073>076-082>088-220100-  
CENTRAL AND SOUTHEAST OHIO  
 
CITY SKY/WX TMP DP RH WIND PRES REMARKS
 
COLUMBUS FAIR 76 66 71 W8 29.82R  
OSU AIRPORT FAIR 75 67 76 W10 29.83R  
BOLTON FIELD NOT AVBL  
RICKENBACK AFB CLOUDY 74 66 75 W10 29.83R  
NEWARK FAIR 75 69 81 SW6 29.82R  
MARION FAIR 75 68 78 W6 29.82R  
LANCASTER MOCLDY 73 68 84 W5 29.84R  
ZANESVILLE FAIR 76 65 68 W9 29.82R  
NEW PHILLY FAIR 76 68 76 W5 29.80R  

 
 
 
CLICK HERE TO GO TO PREVIOUS BULLETINS.

The Nexlab OH Page
The Nexlab PA Page Main Text Page